Theta_e
329 329 328 328 328 328 329 330 331 332 331 332 332 332 332 332 332 332 332 332 332 333 333 333 333 334 336 335 335 334 334 335 335 331 330 332 333 333 331 330 329 328 328 328 328 327 326 327 326 326 327 330 329 327 333 335 333 332 332 331 331 331
329 329 329 329 328 329 330 329 330 330 331 331 332 332 332 332 333 333 332 332 332 333 332 333 332 332 335 335 335 335 334 334 335 333 332 332 333 333 333 331 330 329 328 328 328 328 326 326 326 326 327 329 327 328 333 335 333 332 331 331 331 330
328 328 328 328 328 328 329 328 329 330 330 331 332 333 333 332 333 333 333 333 332 332 332 332 331 331 334 335 335 335 334 334 335 334 333 332 333 333 333 332 331 329 329 328 327 327 325 323 324 324 325 326 326 329 333 334 333 332 332 331 330 329
328 327 327 328 328 328 328 328 329 329 329 330 332 334 334 332 333 334 334 333 333 333 332 332 332 332 333 335 335 335 334 334 335 335 333 333 334 333 332 331 330 329 329 328 327 326 325 324 325 324 322 324 326 330 333 333 333 332 332 331 329 328
330 328 327 327 327 328 328 329 329 329 329 330 332 333 333 332 333 334 334 334 333 333 333 333 333 333 333 334 335 334 334 334 334 335 334 332 333 333 331 329 329 328 328 327 327 326 326 326 328 326 324 324 327 330 330 332 334 332 332 330 329 327
333 332 330 330 328 328 329 329 329 329 329 330 332 334 333 333 333 334 334 333 333 334 334 334 334 334 334 334 334 334 334 333 332 333 333 333 333 332 331 329 328 328 328 327 327 327 328 328 329 329 327 327 329 329 328 330 333 332 331 330 328 326
338 337 335 334 333 332 331 330 329 329 329 329 331 334 334 333 333 334 335 334 333 333 334 334 334 333 334 334 334 334 334 332 331 332 332 333 333 332 331 330 329 329 329 327 327 328 329 330 329 329 329 328 328 329 328 330 333 332 330 329 327 325
341 340 338 338 338 338 336 333 332 330 330 329 330 332 334 334 334 335 335 334 334 334 334 334 334 334 335 334 333 333 333 332 331 331 331 332 333 332 332 332 330 331 330 328 328 329 330 330 330 330 329 329 329 329 329 330 333 332 330 328 327 325
342 341 340 341 341 341 341 338 336 333 333 333 332 332 334 334 335 335 335 334 335 334 334 334 333 334 335 334 333 333 333 332 331 331 331 332 331 332 332 332 331 330 331 330 329 330 330 330 330 330 330 328 329 328 328 330 332 332 330 328 327 326
342 341 341 342 341 341 341 340 338 337 338 338 337 336 335 336 336 336 335 335 335 335 335 335 334 334 335 335 334 333 333 333 332 331 332 332 332 331 331 331 330 329 331 331 331 330 329 329 330 330 329 328 328 328 328 330 332 332 331 329 328 327
342 341 340 340 340 340 340 340 339 339 339 339 338 338 338 338 337 337 336 336 336 335 335 334 334 334 334 335 334 334 333 333 332 332 332 332 332 331 330 330 330 329 330 330 331 329 327 327 328 330 329 328 328 327 328 330 331 332 333 331 330 328
342 340 339 338 338 339 339 339 339 339 339 338 337 339 338 338 338 337 337 336 336 335 335 334 334 334 334 334 334 334 334 332 332 332 332 332 332 331 331 330 329 329 329 330 330 329 326 326 328 329 329 329 328 327 328 330 331 331 332 332 331 331
342 339 338 337 337 337 338 337 337 338 338 337 337 338 337 337 337 336 336 336 336 335 334 334 333 333 334 335 334 334 333 333 332 332 332 331 331 331 331 330 329 329 330 330 330 329 326 325 327 327 327 328 327 327 327 328 331 331 331 332 332 332
340 337 336 335 336 336 335 335 335 336 335 335 336 336 336 336 336 335 335 335 335 335 334 334 333 333 334 335 334 333 332 331 332 332 332 332 331 331 331 330 330 330 330 330 330 328 325 323 325 326 326 327 326 328 327 327 330 331 332 332 332 332
338 336 335 334 334 334 333 333 333 333 333 333 334 334 335 335 335 335 335 335 335 335 335 334 333 333 334 335 334 333 332 331 332 332 332 332 332 331 330 331 330 330 329 330 329 327 324 323 325 326 327 328 327 328 328 328 329 330 331 332 331 331
336 335 333 333 333 333 332 331 330 331 331 332 332 333 334 334 334 335 334 334 334 334 335 334 334 334 334 335 334 332 332 332 332 333 333 332 332 331 332 331 330 329 329 329 327 325 323 323 325 326 329 329 328 329 329 329 329 329 330 331 331 332
332 331 329 329 331 332 332 330 329 330 330 330 331 332 332 333 333 333 333 333 333 333 334 333 333 333 333 334 334 332 333 333 332 332 333 333 332 332 332 331 330 330 330 327 324 323 323 323 325 326 328 329 329 329 329 329 328 328 329 329 329 330
329 329 328 329 330 329 328 328 328 329 329 329 330 331 331 331 332 332 332 332 331 332 332 332 332 332 333 333 333 332 332 332 332 332 332 333 333 333 332 331 331 330 329 327 325 325 325 325 325 326 328 328 329 330 329 329 328 328 328 328 329 328
328 328 328 328 327 326 324 325 326 328 330 330 329 329 328 328 330 330 330 329 329 330 330 331 331 331 332 332 331 332 332 332 332 332 332 332 332 333 332 331 331 330 329 327 327 327 327 327 326 326 328 328 329 329 329 329 329 328 327 328 329 329
327 327 327 326 325 324 324 325 326 327 329 329 329 329 329 328 328 329 329 329 329 328 328 330 330 330 330 331 331 331 331 331 332 332 333 332 331 332 332 331 331 330 330 329 328 328 328 328 328 328 328 328 328 328 328 328 328 327 326 327 329 329
327 326 326 324 323 324 325 326 326 326 327 328 329 329 329 329 328 328 328 327 327 326 327 328 328 329 329 330 330 330 330 330 332 332 331 331 331 331 332 331 330 330 330 329 329 329 329 329 330 329 329 329 327 325 326 327 327 326 325 325 327 327
326 326 325 323 321 322 323 325 326 326 326 327 327 326 326 326 325 325 325 324 323 323 325 325 325 326 328 329 328 328 328 329 330 331 331 330 330 331 331 331 331 330 330 329 329 329 329 330 329 329 330 330 328 326 325 326 326 327 326 325 325 324
327 327 325 323 320 321 322 324 324 325 326 325 324 324 323 323 323 323 323 322 321 321 322 323 323 324 326 327 327 327 326 327 328 328 330 330 330 331 330 331 331 331 330 329 329 329 329 329 329 329 329 329 330 330 330 328 327 327 325 325 324 323
327 327 324 322 322 322 322 323 324 324 323 322 320 320 320 320 321 322 322 322 322 321 321 321 322 323 323 324 326 326 326 327 327 328 329 330 330 330 329 330 330 330 330 329 328 329 328 328 328 329 329 328 328 330 333 332 329 329 327 326 326 324
325 326 323 322 323 322 322 323 323 322 321 320 319 319 319 320 321 322 322 322 322 321 320 320 321 322 323 324 325 326 326 326 327 328 329 329 329 328 328 329 329 329 329 328 328 328 328 327 327 328 328 329 330 331 335 332 330 330 329 329 328 328
324 325 324 325 324 323 322 322 322 321 321 321 321 320 320 321 322 322 322 322 322 321 321 320 320 321 323 323 324 325 325 325 326 327 327 327 326 326 326 328 329 329 329 329 329 328 328 327 327 327 327 329 330 331 332 330 330 331 328 329 330 330
324 327 326 326 324 322 322 322 321 321 320 320 321 321 321 322 322 322 322 321 321 320 321 321 320 320 321 323 324 325 325 324 324 325 326 325 325 325 325 325 326 327 328 329 329 328 328 327 327 327 327 328 327 328 329 328 330 330 330 330 329 328
327 327 324 324 322 322 322 322 321 320 319 320 322 322 321 321 320 320 320 320 319 319 320 320 321 320 319 321 323 323 324 323 323 324 324 324 325 324 324 324 324 325 327 328 328 328 327 327 327 327 327 327 327 328 328 328 328 327 330 333 330 328
329 328 322 322 322 322 322 321 320 318 319 321 322 322 321 320 320 321 321 320 321 320 319 320 320 320 318 318 320 320 320 320 321 322 323 322 323 323 322 322 323 324 325 326 326 327 326 326 326 327 327 327 326 328 328 327 325 324 327 330 331 330
329 328 322 322 322 321 321 320 317 317 319 321 322 321 320 320 322 322 321 320 320 319 318 318 318 319 317 315 316 316 315 313 314 317 319 320 321 321 320 320 321 322 323 324 324 322 321 321 322 323 325 326 327 327 325 321 320 320 322 324 326 326
329 328 323 323 323 321 321 317 316 318 320 321 321 320 320 321 322 321 319 319 318 317 317 316 316 316 316 315 315 315 313 312 313 314 315 317 318 318 318 318 319 319 320 320 318 317 317 317 318 318 320 323 324 322 319 316 316 316 317 318 321 320
328 328 325 323 323 322 319 316 317 320 321 321 321 319 320 322 321 320 317 317 316 316 315 315 314 314 314 315 315 314 314 315 315 315 315 314 315 316 317 317 317 318 318 317 316 316 316 316 316 316 316 316 317 316 315 315 315 314 314 315 317 316
329 327 325 324 324 322 317 315 319 322 321 320 320 319 321 322 321 319 317 316 316 315 314 313 313 313 312 313 315 314 314 315 315 314 314 313 313 313 314 314 314 314 317 317 316 314 314 314 314 314 313 312 313 313 313 313 313 313 314 313 313 313
328 327 325 324 323 320 316 316 320 322 321 320 319 319 321 321 320 318 317 316 315 311 311 311 310 311 311 311 312 312 314 315 314 313 314 313 312 310 309 309 307 308 312 315 316 314 314 314 313 312 312 312 312 313 313 312 312 312 313 313 313 313
325 325 324 324 323 319 317 318 320 321 321 320 318 319 320 321 320 318 318 317 314 310 310 309 309 311 311 309 309 310 313 313 313 313 315 314 313 310 306 306 305 305 306 308 312 314 313 313 313 312 311 311 312 312 311 310 309 311 312 313 312 312
324 326 325 324 322 319 317 319 320 321 321 320 319 318 320 320 319 319 318 317 314 313 312 311 310 312 313 310 308 308 309 310 312 314 314 314 314 310 306 306 307 306 306 306 307 312 314 313 313 312 310 309 309 310 309 307 307 309 311 312 312 312
324 326 326 324 322 319 317 319 320 322 321 320 319 319 319 320 320 319 319 318 317 315 314 313 312 313 314 312 309 307 307 308 311 313 314 314 313 310 307 306 307 308 308 306 306 309 313 313 313 312 310 307 308 309 309 309 308 309 310 310 310 310
Wind_Speed
18 18 18 18 18 18 18 18 18 17 15 15 14 13 13 12 11 11 10 10 9 9 8 7 7 7 7 7 8 7 7 7 8 8 7 7 7 7 6 6 6 7 6 6 5 5 5 5 6 7 7 5 3 5 8 5 12 14 11 10 7 4
18 17 17 17 18 18 17 17 17 16 15 14 13 12 12 12 11 10 10 9 9 8 8 7 6 7 7 7 7 7 7 7 7 8 7 6 6 6 6 5 6 6 5 5 4 4 4 4 5 6 7 5 2 4 6 5 8 14 11 10 7 4
18 17 17 17 17 17 17 16 16 16 15 14 13 12 12 12 11 11 10 9 9 9 8 8 7 6 7 7 7 7 7 7 7 7 6 6 6 6 5 5 5 5 5 4 3 2 3 3 3 4 5 4 2 4 5 5 5 13 11 9 7 5
18 17 17 17 17 16 16 16 16 15 14 14 13 13 12 12 11 11 10 10 9 9 9 8 7 7 7 7 7 7 7 7 7 6 6 6 6 6 5 5 5 5 5 4 3 2 3 3 3 3 2 3 3 3 3 4 4 11 11 9 7 5
17 17 17 17 17 16 16 16 16 15 14 14 14 14 13 12 12 11 10 10 9 9 9 8 8 8 8 7 8 8 7 7 7 6 6 6 6 6 5 5 5 5 5 4 4 3 3 3 2 3 2 3 2 1 2 3 3 10 11 10 7 5
16 16 16 16 16 16 17 16 16 15 15 15 15 14 13 12 11 11 10 10 9 9 8 8 8 8 8 8 9 9 8 8 8 7 7 6 7 7 6 5 4 5 5 5 5 4 4 2 1 2 2 2 1 1 2 3 3 9 11 10 7 5
17 16 16 15 15 16 16 17 16 16 16 16 16 15 14 13 12 12 11 10 9 9 8 8 8 8 9 9 10 9 9 9 9 9 8 8 8 7 6 5 4 4 5 6 6 5 4 2 2 1 1 2 1 2 3 2 5 8 10 10 7 6
18 17 17 16 15 16 16 17 17 17 17 16 17 16 15 14 13 13 12 10 10 9 9 9 8 8 10 11 11 10 10 9 9 9 9 8 9 7 6 5 4 4 4 6 7 6 4 4 4 4 5 5 3 4 4 3 6 8 11 10 7 6
18 19 18 17 16 16 17 18 18 17 16 16 17 16 15 14 13 13 13 11 10 10 10 10 9 10 12 12 12 11 10 10 10 10 9 9 9 8 7 6 5 5 5 5 6 6 5 6 6 5 7 8 5 4 4 6 7 8 11 10 8 7
19 20 19 19 18 17 17 18 19 17 16 16 16 16 15 14 14 14 14 13 11 10 10 10 10 11 12 12 12 12 11 11 10 10 10 10 9 9 8 6 6 6 6 6 6 6 6 7 7 8 9 9 7 4 4 7 8 9 10 9 8 8
21 21 20 19 18 17 17 18 18 18 16 15 14 14 14 14 14 13 14 14 12 11 11 11 11 12 12 12 12 12 12 12 11 11 11 10 10 10 8 7 7 6 6 6 6 6 6 6 7 10 11 11 9 5 4 9 10 10 11 10 9 8
23 22 21 19 18 18 17 17 17 17 16 14 14 14 14 13 13 12 12 13 13 13 13 13 13 12 12 13 12 12 12 12 11 10 10 10 9 10 10 8 7 7 7 7 6 6 6 5 6 9 11 9 6 3 4 9 12 12 12 11 11 10
25 23 21 19 19 18 17 16 15 15 14 14 14 15 14 14 13 12 12 13 14 14 14 15 15 13 12 12 11 10 11 10 10 9 10 10 9 10 10 9 8 8 8 7 7 8 7 4 4 6 7 6 2 2 3 7 13 14 13 12 12 11
25 24 21 19 18 18 16 14 13 14 13 14 14 14 14 14 14 13 13 14 14 15 15 15 14 14 13 11 10 9 9 9 9 9 9 10 9 10 9 9 9 8 8 8 9 10 8 4 4 4 5 5 2 1 1 5 12 15 15 14 13 13
26 25 22 20 18 18 16 14 13 13 13 13 13 14 13 14 13 13 13 13 14 15 15 15 14 14 13 13 11 10 9 8 9 9 10 10 10 10 10 8 7 7 8 10 11 10 9 5 4 4 4 3 4 4 6 7 9 12 14 16 15 15
27 25 22 20 19 18 16 14 14 12 10 10 11 13 13 13 13 12 11 11 13 15 15 15 15 15 15 14 13 12 10 9 9 9 9 10 10 10 9 8 8 8 9 9 10 9 8 6 5 4 4 3 4 6 7 9 8 8 10 13 14 15
28 25 22 20 20 19 16 14 14 13 10 8 9 11 11 11 12 10 10 10 11 13 14 14 15 15 14 14 14 13 12 10 10 9 8 9 11 11 8 8 10 9 9 8 7 5 4 5 4 4 3 3 4 5 6 9 11 10 9 8 8 12
28 24 21 21 21 19 16 14 13 12 11 11 10 10 9 8 8 7 7 7 8 9 10 11 12 13 12 12 12 11 12 11 9 8 8 9 11 12 10 9 10 10 8 7 6 5 4 3 3 3 2 3 4 4 5 6 8 9 9 9 7 4
26 23 22 22 22 18 16 16 14 12 12 13 13 12 10 8 8 6 5 4 4 4 5 7 9 9 9 9 9 9 10 9 8 7 8 9 10 12 12 10 10 10 8 6 5 6 5 3 3 4 3 3 4 5 5 5 5 6 6 7 8 7
25 24 24 24 22 19 19 20 19 17 15 14 14 14 12 10 9 7 6 4 3 3 3 5 6 6 6 7 7 8 9 8 7 6 7 8 8 11 13 11 9 9 8 6 6 7 6 5 3 4 4 2 3 4 5 5 5 5 5 5 6 6
24 24 23 23 23 21 22 23 23 21 18 16 15 14 13 11 9 8 6 4 4 4 4 5 4 4 5 5 5 4 5 5 5 5 5 6 7 8 11 11 9 8 8 6 6 7 7 5 3 3 4 4 3 4 5 5 6 5 5 5 5 6
23 22 21 22 23 22 22 23 24 23 21 18 15 13 13 12 11 10 9 6 4 4 4 5 5 5 5 5 5 6 5 5 4 5 5 5 6 7 9 10 10 9 8 7 6 6 6 5 2 2 2 2 4 4 5 5 6 5 5 5 2 3
24 21 21 22 22 21 21 21 22 24 24 21 17 14 13 11 10 9 8 6 5 4 4 3 5 6 6 5 6 6 7 7 6 6 6 6 6 7 7 8 9 9 8 7 6 6 5 4 2 0 1 1 1 3 3 4 4 3 4 6 7 5
24 22 22 22 21 20 20 21 22 24 23 20 17 14 12 11 9 8 7 6 4 4 4 5 5 5 5 6 6 5 7 7 7 6 6 5 5 4 5 5 7 7 6 5 6 6 6 6 5 4 2 0 1 1 2 2 2 2 2 2 4 5
24 23 23 22 20 20 21 23 24 23 21 19 17 14 14 12 11 10 9 7 5 4 5 5 5 5 6 7 6 6 7 8 8 8 7 6 5 4 3 3 4 5 4 4 5 6 6 7 9 8 4 1 1 1 2 2 2 2 2 1 1 2
25 23 22 20 20 21 22 24 25 24 22 22 19 16 16 15 13 12 10 9 7 6 6 5 5 5 6 7 7 7 7 8 8 10 10 9 9 9 8 5 3 4 5 4 5 7 6 6 10 11 7 2 1 0 1 1 1 1 2 1 2 3
25 21 20 21 22 22 23 24 24 23 22 22 21 18 17 16 14 13 11 9 8 7 6 6 6 7 7 7 6 6 7 8 9 11 11 11 11 12 12 10 7 4 4 5 6 7 8 7 7 10 9 5 1 0 1 1 0 1 1 2 2 2
24 21 22 24 24 24 24 25 24 22 22 22 22 20 18 17 16 15 13 12 10 9 7 7 7 8 8 8 7 9 11 11 12 12 11 11 10 11 11 11 11 9 6 4 4 4 6 6 5 7 9 8 4 1 1 2 1 1 2 0 2 3
24 23 26 26 25 25 25 25 24 23 23 22 22 22 20 19 18 17 16 14 13 12 9 8 7 8 10 12 12 13 13 12 12 12 12 12 11 11 11 10 10 10 9 8 5 5 6 5 4 5 8 8 6 3 2 2 2 2 2 2 1 2
26 26 29 27 26 26 25 25 24 24 24 24 24 23 21 21 19 18 17 15 14 13 11 9 8 8 10 12 13 12 11 11 11 12 12 12 12 12 11 10 10 10 9 10 10 9 9 7 6 5 6 7 7 4 2 3 4 3 3 3 2 1
28 27 30 29 27 27 25 24 24 25 25 26 27 25 24 24 21 19 18 17 16 14 13 11 10 10 11 12 12 11 11 12 12 12 11 11 11 10 9 9 10 11 11 11 12 11 11 11 12 11 9 7 7 6 5 5 6 6 5 3 2 1
30 29 30 29 28 27 26 25 25 25 25 27 27 26 26 26 23 21 19 18 17 15 14 12 10 11 12 13 12 11 11 12 12 12 11 10 10 9 8 8 9 10 10 10 10 9 10 11 11 12 13 11 9 9 8 8 7 8 8 6 4 2
30 29 29 28 27 26 26 26 26 25 25 26 25 25 26 26 24 22 21 21 19 17 15 14 13 12 13 14 12 12 12 12 11 11 10 10 9 8 8 8 9 9 10 10 9 9 10 11 11 11 11 10 9 8 8 8 6 7 7 6 7 5
23 22 24 23 23 24 25 25 24 25 26 25 24 24 25 25 24 22 21 22 20 19 18 16 15 14 14 14 14 13 13 12 11 10 9 9 9 9 9 10 11 10 10 9 9 10 11 11 11 11 10 9 9 9 8 7 5 5 6 6 8 7
13 15 19 20 21 23 23 22 21 24 26 25 24 24 24 24 23 22 21 20 19 19 19 18 17 16 15 15 15 14 14 14 12 10 9 9 8 8 9 11 11 11 11 9 10 11 10 10 10 10 8 7 7 8 7 6 5 6 7 7 9 9
9 14 22 25 26 25 22 20 20 23 24 24 25 24 24 23 22 21 20 18 17 18 18 18 18 17 16 14 14 14 14 15 13 11 10 9 7 7 8 9 10 10 11 9 10 11 10 10 9 9 8 6 6 7 8 8 8 7 7 7 7 8
15 19 26 28 28 27 25 21 20 22 24 25 26 25 23 23 22 21 19 17 16 17 17 17 18 18 16 13 12 13 14 15 14 12 11 9 7 7 7 7 8 9 9 8 9 11 10 9 8 7 7 7 6 8 9 9 10 9 8 7 6 6
Wind_Direction
159 159 160 158 156 156 156 159 161 162 163 164 165 167 169 169 170 172 174 172 169 170 167 166 166 167 171 170 161 154 154 153 156 163 166 164 160 155 149 142 139 140 135 128 122 122 120 109 122 145 161 147 90 77 62 95 163 173 175 166 157 146
165 165 166 165 162 160 161 164 166 168 169 168 171 176 176 175 178 181 181 178 172 171 170 171 173 175 180 182 172 161 161 161 162 166 167 169 169 163 159 151 149 152 146 138 132 130 129 117 122 141 161 162 100 86 58 42 158 176 182 173 166 155
171 172 174 172 170 169 169 172 174 177 177 177 180 183 185 183 184 184 182 179 173 170 171 173 179 183 186 188 180 170 169 168 167 168 168 176 181 170 168 165 164 170 168 165 161 157 156 137 118 136 156 158 101 88 72 34 147 178 186 180 171 161
178 180 180 179 178 178 178 181 185 186 186 187 187 188 191 190 187 188 184 180 177 172 172 175 180 188 194 192 181 177 177 172 170 172 170 180 189 175 170 173 178 186 189 198 193 200 194 166 120 120 143 140 105 84 76 34 140 178 191 186 175 165
186 186 187 188 185 186 187 188 190 191 193 194 194 195 196 196 193 195 190 185 184 176 176 180 184 189 195 192 183 184 182 176 177 179 175 181 191 183 179 182 190 202 207 216 206 197 191 183 137 116 119 122 105 71 38 12 150 180 196 190 176 169
190 192 193 195 192 194 193 194 195 194 199 200 202 202 200 201 201 204 201 197 194 182 180 186 192 195 192 189 188 189 185 183 185 187 187 187 190 193 197 196 202 214 217 220 209 191 184 205 214 126 115 132 123 330 331 335 172 184 199 189 176 169
192 194 196 198 198 199 200 201 200 199 205 207 209 208 205 204 206 213 212 208 203 193 192 195 203 205 196 193 193 192 188 190 190 194 197 191 192 197 205 209 212 213 210 209 195 186 190 222 249 244 280 219 202 311 312 279 187 191 199 189 179 169
193 194 196 201 203 204 205 204 202 202 208 214 216 213 211 207 208 217 219 215 209 204 202 204 214 210 199 197 196 192 190 195 198 201 201 198 199 201 209 221 231 225 206 197 185 188 206 226 245 254 266 249 241 301 293 216 181 193 198 189 180 169
195 195 197 203 205 206 207 204 202 202 208 220 222 218 217 216 214 220 224 221 215 213 211 211 217 209 200 198 197 195 194 199 204 205 204 204 207 212 220 231 246 243 223 211 208 221 241 248 245 233 240 241 243 292 273 210 180 182 194 192 182 171
197 194 194 199 201 202 202 201 201 203 210 218 222 220 222 223 220 221 222 222 217 215 216 216 214 207 203 201 199 200 202 207 210 209 208 208 214 219 222 228 239 238 231 233 240 254 271 266 238 214 224 231 234 268 247 213 194 183 191 195 187 177
195 191 189 191 195 196 194 196 200 204 209 213 215 216 219 220 216 214 216 216 212 208 208 211 212 208 207 207 205 205 208 212 212 211 212 214 219 221 220 226 226 224 230 236 250 269 283 274 235 216 224 230 236 253 225 212 204 192 193 194 189 185
192 188 186 186 190 191 188 191 197 201 204 208 209 210 211 213 210 206 207 208 206 206 205 206 209 207 207 213 213 208 207 210 212 215 215 214 217 219 220 221 214 215 225 229 246 266 275 268 228 220 230 235 245 275 237 214 206 198 199 200 193 192
191 186 183 183 185 185 184 186 192 195 200 207 209 209 209 208 207 201 199 201 203 208 207 206 208 207 208 215 218 212 210 213 214 217 215 211 214 216 215 211 205 213 222 225 244 259 264 250 211 217 227 227 239 318 282 224 211 205 206 208 202 199
188 183 180 180 181 180 179 179 182 188 195 203 204 206 210 208 207 204 201 201 206 211 209 208 209 211 213 214 218 221 219 216 211 211 211 209 212 209 205 203 203 211 220 229 242 254 259 242 211 216 217 214 202 78 71 200 211 212 209 208 205 205
182 180 180 178 178 174 170 166 169 178 185 193 197 200 206 207 207 208 208 208 213 215 212 212 211 213 216 214 217 221 218 214 209 208 207 207 206 203 203 202 200 205 216 231 242 253 257 237 210 202 195 209 193 143 113 131 188 209 214 215 210 208
176 176 174 170 171 169 163 156 156 162 169 181 193 195 197 204 209 211 212 213 218 219 218 219 216 214 214 212 213 214 212 211 208 204 202 205 202 201 205 197 192 204 219 233 240 250 248 224 206 186 160 165 168 155 129 116 135 173 202 218 221 219
164 165 161 157 161 161 158 155 154 152 149 154 175 183 185 200 213 217 217 219 222 224 225 226 223 219 213 208 211 212 211 203 198 198 193 198 202 202 202 196 197 210 226 231 225 234 235 206 194 180 161 165 157 150 145 124 119 125 138 170 207 221
156 157 155 153 152 153 154 152 152 149 140 132 140 158 164 181 197 205 212 217 226 229 229 226 222 219 214 208 208 210 211 200 196 199 192 195 204 204 201 203 209 213 222 222 218 234 237 204 192 198 202 198 189 177 165 142 127 122 116 119 127 174
152 153 150 148 145 149 151 145 146 146 140 132 132 140 140 139 144 152 161 174 198 202 210 211 204 208 213 208 203 204 206 200 198 203 198 199 207 209 205 205 211 215 219 218 227 245 248 246 230 228 235 201 196 199 185 172 163 152 130 116 105 85
152 152 149 147 145 145 144 140 142 143 141 139 139 144 146 143 136 134 135 130 127 117 137 175 180 183 185 191 194 196 198 195 196 203 205 205 208 211 210 210 213 217 223 225 240 255 265 278 266 242 245 231 208 209 204 197 196 187 156 130 114 88
154 156 154 153 152 149 143 141 143 144 145 145 147 148 146 146 139 131 130 125 114 101 108 129 145 152 148 158 156 150 169 179 191 198 199 202 203 204 206 210 214 218 225 229 238 251 265 275 276 272 270 277 278 255 235 223 224 215 177 147 121 107
157 160 160 158 156 154 149 145 145 147 149 149 152 150 141 137 133 128 125 117 110 100 108 106 97 113 125 130 120 103 103 117 145 168 177 187 194 198 202 208 213 215 218 221 225 234 247 257 280 311 308 319 307 281 255 244 249 247 215 206 192 124
160 162 163 160 157 156 155 153 149 147 148 147 148 152 148 144 143 140 135 131 128 120 125 116 96 107 116 116 116 106 101 106 116 137 160 175 182 194 204 215 220 217 217 223 227 226 226 232 240 187 101 46 326 303 285 277 284 281 250 235 238 239
165 167 167 163 161 161 159 157 152 147 146 144 142 146 147 147 151 151 147 146 143 132 134 131 117 114 110 112 122 117 106 105 107 120 143 157 159 175 194 212 220 214 217 222 219 222 219 216 208 184 151 109 56 31 307 300 338 323 289 243 232 236
169 170 170 168 169 169 163 156 149 142 140 135 134 138 139 140 142 142 139 134 126 126 130 122 112 111 110 110 115 118 108 101 96 102 113 115 110 109 128 167 192 196 210 213 198 204 211 213 211 199 174 121 56 67 247 268 15 352 314 337 277 251
172 173 178 181 179 175 167 159 153 146 141 136 136 139 139 139 139 139 135 130 126 124 121 114 98 95 105 108 106 113 111 103 100 103 105 103 97 90 89 104 143 190 210 211 193 189 187 198 212 212 203 184 161 197 248 274 82 7 328 319 295 279
177 179 183 184 181 175 168 165 163 158 151 146 145 144 142 141 141 143 142 139 140 137 128 118 99 85 99 118 120 122 115 109 114 117 114 108 101 94 89 90 94 117 182 199 199 189 175 175 201 216 214 204 210 11 49 26 142 149 338 322 314 294
180 180 177 175 177 175 169 167 165 161 157 154 151 147 145 143 140 141 139 135 133 137 139 131 113 89 92 115 126 124 118 113 116 120 120 115 110 105 95 90 90 92 108 148 188 185 166 170 190 202 205 208 225 251 63 21 353 111 117 49 324 336
184 180 174 172 174 174 170 167 165 162 158 157 154 149 147 144 141 140 139 137 135 136 142 143 135 108 97 105 114 117 115 110 112 118 118 112 112 110 101 94 93 95 100 103 110 120 131 155 177 172 179 188 190 178 92 46 20 52 99 102 311 323
187 182 176 175 174 172 169 167 167 163 159 159 156 152 149 148 151 151 147 146 144 141 142 143 143 133 116 109 111 112 106 99 104 116 120 115 114 114 109 103 99 99 105 104 104 103 103 109 113 125 158 175 169 153 105 63 52 58 89 91 86 334
189 187 181 180 179 176 172 170 169 166 163 163 160 156 154 154 158 159 155 152 149 145 144 143 139 136 131 122 117 112 103 95 96 103 110 114 118 119 117 116 112 108 108 109 110 107 99 98 98 97 108 129 134 122 102 81 66 65 78 77 77 32
187 188 185 184 184 180 174 171 169 167 166 166 165 162 160 161 164 164 160 156 153 151 149 149 146 137 134 133 127 119 111 104 100 97 97 103 110 117 119 121 124 121 117 118 120 118 107 101 102 97 94 99 106 102 90 82 76 71 71 71 76 64
186 187 183 183 186 181 172 168 166 167 170 171 172 170 166 166 168 167 165 162 161 159 156 154 152 144 139 141 139 132 125 116 111 103 96 98 99 108 116 114 116 121 124 124 123 120 114 106 103 100 96 95 97 93 81 73 70 69 68 65 64 48
178 176 174 177 185 180 169 166 166 171 176 176 179 178 173 172 173 172 170 168 168 163 158 156 154 149 145 146 148 145 139 132 127 118 109 106 100 99 107 104 101 106 114 122 125 118 112 109 104 100 100 100 95 89 78 66 59 65 63 60 62 45
99 132 162 176 184 180 170 165 168 178 182 182 185 186 181 178 178 178 175 172 170 165 159 157 156 154 150 148 150 151 150 147 142 136 128 122 109 99 103 105 104 102 102 111 128 125 117 114 109 100 96 99 101 89 68 57 56 68 72 69 65 52
91 148 177 185 186 183 174 164 168 183 190 189 188 189 188 186 184 181 179 177 174 168 162 160 159 159 157 152 150 151 154 155 152 147 142 137 127 115 115 116 112 108 104 104 121 128 126 120 112 103 92 86 98 90 72 68 67 73 82 74 67 53
181 181 186 187 186 185 179 169 168 185 196 196 191 189 189 189 188 186 184 184 180 173 169 165 164 163 163 160 157 154 152 155 157 156 152 151 143 132 131 129 117 111 109 105 114 124 129 126 117 109 95 78 88 97 88 81 76 77 80 69 63 56